Guymon, OK

11:22 AM CDT on September 29, 2016 (GMT -0500)
Guymon Municipal

Weather History for KGUY - August, 2013

Change the Weather History Date:

Sunday, August 4, 2013

  Actual Average Record
Temperature  
Mean Temperature 84 °F 79 °F  
Max Temperature 98 °F 93 °F 104 °F (2000)
Min Temperature 69 °F 66 °F 63 °F (2014)
Degree Days  
Heating Degree Days 0 0  
Month to date heating degree days 0 0  
Since 1 June heating degree days 0 8  
Since 1 July heating degree days 0 0  
Cooling Degree Days 19 14  
Month to date cooling degree days 76 57  
Year to date cooling degree days 1189 899  
Since 1 June cooling degree days 985 791  
Growing Degree Days 33 (Base 50)    
Moisture  
Dew Point 66 °F    
Average Humidity 60    
Maximum Humidity 90    
Minimum Humidity 30    
Precipitation  
Precipitation T in 0.08 in 0.43 in (2011)
Month to date precipitation 0.02 0.31  
Year to date precipitation 6.37 12.16  
Snow  
Snow 0.00 in - - ()
Month to date snowfall 0.0  
Since 1 June snowfall T  
Since 1 July snowfall 0.0  
Snow Depth 0.00 in    
Sea Level Pressure  
Sea Level Pressure 29.95 in    
Wind  
Wind Speed 8 mph (NNE)    
Max Wind Speed 21 mph    
Max Gust Speed 26 mph    
Visibility 10 miles    
Events Thunderstorm    
T = Trace of Precipitation, MM = Missing Value Source: NWS Daily Summary

Daily Weather History Graph

Daily Weather History Graph

Search for Another Location

Airport or City:

Trip Planner

Search our weather history database for the weather conditions in past years. The results will help you decide how hot, cold, wet, or windy it might be!

Date:

Astronomy

Aug. 04, 2013 Rise Set
Actual Time 6:54 AM CDT 8:49 PM CDT
Civil Twilight 6:26 AM CDT 9:17 PM CDT
Nautical Twilight 5:51 AM CDT 9:51 PM CDT
Astronomical Twilight 5:15 AM CDT 10:28 PM CDT
Moon 4:57 AM CDT (8/4) 7:13 PM CDT (8/4)
Length of Visible Light 14h 50m
Length of Day
13h 54m
Waning Crescent, 4% of the Moon is Illuminated
Aug 4
Waning Crescent
Aug 6
New
Aug 14
First Quarter
Aug 20
Full
Aug 28
Last Quarter

Hourly Weather History & Observations

Time (CDT) Temp. Heat Index Dew Point Humidity Pressure Visibility Wind Dir Wind Speed Gust Speed Precip Events Conditions
12:53 AM 73.9 °F - 70.0 °F 87% 29.92 in 10.0 mi North 6.9 mph - N/A   Clear
1:53 AM 73.0 °F - 70.0 °F 90% 29.94 in 10.0 mi North 6.9 mph - N/A   Partly Cloudy
2:53 AM 73.0 °F - 69.1 °F 87% 29.95 in 10.0 mi North 9.2 mph - N/A   Clear
3:53 AM 72.0 °F - 68.0 °F 87% 29.98 in 10.0 mi NNW 8.1 mph - N/A   Mostly Cloudy
4:13 AM 73.4 °F - 69.8 °F 88% 30.12 in 10.0 mi North 10.4 mph - N/A   Mostly Cloudy
4:22 AM 73.4 °F - 69.8 °F 88% 30.12 in 10.0 mi North 12.7 mph - N/A   Mostly Cloudy
4:49 AM 71.6 °F - 66.2 °F 83% 30.12 in 10.0 mi NNE 12.7 mph - N/A   Overcast
4:53 AM 71.1 °F - 66.9 °F 87% 29.97 in 10.0 mi NNE 10.4 mph - N/A   Overcast
5:10 AM 71.6 °F - 66.2 °F 83% 30.12 in 10.0 mi North 5.8 mph - 0.00 in   Scattered Clouds
5:53 AM 71.1 °F - 66.0 °F 84% 29.95 in 10.0 mi East 4.6 mph - 0.00 in   Clear
6:53 AM 70.0 °F - 64.9 °F 84% 29.96 in 10.0 mi ENE 5.8 mph - N/A   Clear
7:53 AM 70.0 °F - 66.0 °F 87% 29.97 in 10.0 mi North 6.9 mph - N/A   Clear
8:53 AM 73.0 °F - 64.9 °F 76% 29.99 in 10.0 mi NNE 5.8 mph - N/A   Mostly Cloudy
9:06 AM 73.4 °F - 64.4 °F 73% 30.12 in 10.0 mi NNE 6.9 mph - N/A   Scattered Clouds
9:53 AM 75.9 °F - 66.0 °F 71% 29.99 in 10.0 mi ENE 8.1 mph - N/A   Clear
10:53 AM 79.0 °F - 66.9 °F 66% 29.98 in 10.0 mi NE 5.8 mph - N/A   Clear
11:53 AM 82.9 °F 85.0 °F 66.0 °F 56% 29.96 in 10.0 mi NE 5.8 mph - N/A   Clear
12:53 PM 87.1 °F 89.2 °F 66.0 °F 49% 29.93 in 10.0 mi Variable 6.9 mph - N/A   Clear
1:53 PM 91.0 °F 92.6 °F 64.0 °F 41% 29.91 in 10.0 mi SW 6.9 mph - N/A   Clear
2:53 PM 93.0 °F 94.6 °F 64.0 °F 38% 29.88 in 10.0 mi SSE 10.4 mph - N/A   Clear
3:53 PM 96.1 °F 96.9 °F 62.1 °F 32% 29.85 in 10.0 mi South 12.7 mph - N/A   Clear
4:53 PM 96.1 °F 96.4 °F 61.0 °F 31% 29.83 in 10.0 mi West 10.4 mph 21.9 mph N/A   Clear
5:53 PM 93.0 °F 94.2 °F 63.0 °F 37% 29.83 in 10.0 mi SSW 8.1 mph - N/A   Partly Cloudy
6:53 PM 93.9 °F 95.2 °F 63.0 °F 36% 29.81 in 10.0 mi South 10.4 mph - N/A   Clear
7:53 PM 93.0 °F 93.8 °F 62.1 °F 36% 29.81 in 10.0 mi SSW 5.8 mph - N/A   Clear
8:22 PM 84.2 °F 85.6 °F 64.4 °F 51% 30.00 in 10.0 mi North 15.0 mph - N/A Thunderstorm Scattered Clouds
8:41 PM 82.4 °F 84.6 °F 66.2 °F 58% 30.01 in 10.0 mi North 16.1 mph 20.7 mph N/A   Mostly Cloudy
8:53 PM 82.9 °F 85.4 °F 66.9 °F 58% 29.87 in 10.0 mi NE 13.8 mph - N/A   Mostly Cloudy
9:53 PM 80.1 °F 83.6 °F 71.1 °F 74% 29.87 in 10.0 mi NE 12.7 mph - N/A   Clear
10:53 PM 80.1 °F 82.3 °F 66.9 °F 64% 29.88 in 10.0 mi ENE 6.9 mph - N/A   Mostly Cloudy
11:53 PM 77.0 °F - 71.1 °F 82% 29.88 in 10.0 mi East 10.4 mph 17.3 mph N/A   Clear